Cloud_Cover
5 2 0 0 0 0 0 0 0 0 0 0 0 0 0 0 0 0 0 0 0 0 0 0 0 0 0 0 0 0 0 0 13 5 79 100 97 18 30 0 2 92 66 21 11
4 0 1 0 0 0 0 0 0 0 0 0 0 0 0 5 0 0 0 0 0 0 0 0 0 0 0 0 0 0 0 0 0 20 84 30 10 0 0 0 0 36 100 41 7
5 5 5 5 0 0 0 0 0 0 0 0 0 0 0 0 0 0 0 0 0 0 0 0 0 0 0 0 0 0 0 0 0 82 99 16 91 5 2 0 0 0 0 0 0
5 5 5 5 5 0 0 0 0 0 0 0 0 0 0 0 0 0 0 0 0 0 0 0 0 0 0 0 0 0 0 0 0 89 83 2 36 5 1 4 0 0 1 0 0
5 2 5 5 8 5 5 0 0 0 0 0 0 0 0 0 0 0 0 0 0 0 0 0 0 0 0 0 0 0 0 0 0 0 40 21 1 5 5 0 0 0 0 0 0
5 0 4 5 33 5 5 0 0 0 0 0 0 0 0 0 0 0 0 0 0 0 0 0 0 0 0 0 0 0 0 0 0 0 0 5 36 5 1 0 0 0 0 0 0
2 3 5 5 5 5 5 0 0 0 0 0 0 1 0 0 0 0 0 0 0 0 0 0 0 0 0 0 0 0 0 0 0 0 0 0 0 0 0 0 0 0 0 0 0
5 2 4 0 4 5 5 5 0 0 0 0 0 0 0 0 0 0 0 0 0 0 0 0 0 0 0 0 0 0 0 0 0 0 0 0 0 0 0 0 0 0 0 0 0
5 3 0 0 0 5 5 5 0 0 0 0 0 0 0 0 0 0 0 0 0 0 0 0 0 0 0 0 0 0 0 0 0 0 0 0 0 0 0 1 0 0 0 0 0
17 5 4 0 0 0 1 5 0 0 0 0 0 0 0 0 0 0 0 0 0 0 0 0 0 0 0 0 0 0 0 0 0 0 0 0 0 0 0 0 0 0 0 0 0
92 5 3 5 0 0 0 0 0 0 0 0 0 1 0 1 0 0 0 0 0 0 0 0 0 0 0 0 0 0 0 0 14 100 3 0 0 0 0 0 0 0 0 4 5
5 44 5 3 1 0 0 0 0 0 3 0 0 0 0 0 0 0 0 0 0 0 0 0 0 0 0 0 0 0 0 0 5 22 52 11 9 5 22 5 0 0 75 58 4
34 5 5 5 5 2 1 0 0 2 5 0 0 0 0 4 4 9 5 0 0 0 0 0 0 0 0 0 0 0 0 0 0 5 50 76 20 5 12 1 0 0 8 4 6
44 5 5 24 7 5 5 0 0 5 28 2 5 5 2 0 0 0 0 1 0 0 0 0 0 0 0 0 0 0 0 1 77 29 3 3 0 0 5 2 5 5 36 97 7
90 63 45 5 5 5 10 5 5 5 3 5 5 5 0 10 2 4 0 0 0 0 0 0 0 0 6 82 3 37 5 78 71 4 0 0 0 0 0 0 19 12 30 98 92
100 83 5 5 7 17 6 5 5 5 55 5 81 38 54 96 48 23 5 5 0 0 0 5 0 0 0 1 0 1 0 0 0 0 0 0 0 0 0 0 0 5 88 100 100
96 96 79 22 6 12 30 5 4 0 5 0 16 98 4 3 1 2 4 0 0 0 0 0 0 0 0 0 0 0 0 0 0 0 0 0 0 0 0 0 11 4 2 26 6
5 18 6 23 6 5 5 7 14 89 95 4 0 0 4 0 0 0 0 0 0 0 0 0 0 0 1 0 0 0 0 0 0 0 0 24 2 81 3 4 60 100 57 15 41
0 0 2 10 40 5 5 1 5 4 5 0 5 5 15 5 0 0 0 0 0 0 0 0 0 2 56 5 3 0 0 0 0 0 0 0 0 99 93 88 44 64 100 68 94
0 0 0 0 0 0 0 2 3 0 0 2 4 2 1 2 46 40 1 0 0 0 0 0 0 0 5 61 100 19 0 6 40 5 4 0 0 4 4 5 62 98 100 77 97
0 0 0 0 0 0 0 0 0 0 0 0 0 0 0 0 71 97 95 83 58 28 48 23 2 0 5 48 99 100 1 3 1 5 5 3 0 5 9 78 60 72 100 100 47
0 0 0 0 0 0 0 0 0 0 0 0 0 0 0 0 27 5 100 96 9 90 100 41 96 0 1 23 100 20 61 13 17 1 24 29 77 6 8 47 99 100 100 100 100
0 0 0 0 0 0 0 0 0 0 3 3 0 0 0 0 3 80 61 19 5 81 98 61 44 4 0 1 58 4 70 88 70 4 68 82 4 5 20 96 96 99 90 100 89
0 0 0 0 0 0 0 0 0 4 0 4 0 0 0 0 0 3 98 36 41 31 67 100 94 96 0 0 0 4 80 77 84 73 25 24 1 94 73 100 100 100 96 84 100
21 22 1 0 0 0 0 0 0 5 1 0 0 0 0 0 0 0 1 3 3 0 1 8 5 5 5 4 5 1 6 63 7 70 27 2 7 98 100 83 100 100 100 100 100
45 5 4 73 86 7 5 0 0 4 33 6 0 0 0 5 4 5 33 2 2 6 5 3 0 0 0 3 3 1 0 0 15 23 5 0 0 98 5 4 100 100 100 100 100
20 29 86 100 88 98 97 58 5 5 0 5 40 52 0 0 5 5 5 5 5 1 4 3 0 0 1 4 5 0 5 5 5 58 4 4 2 0 1 92 100 100 100 100 100